SCP
0 0 0 0 0 0 0 0 0 0 0 0 0 0 0 0 0 0 0 0 0 0 0 0 0 0 0 0 0 0 0 0 -0 0 0 0 0 0 0 0 0 0 0 0 0 0 0
0 0 0 0 0 0 0 0 0 0 0 0 0 0 0 0 0 0 0 0 0 0 0 0 0 0 0 0 0 0 0 0 0 0 0 0 0 0 0 0 0 0 0 0 0 0 0
0 0 0 0 0 0 0 0 0 0 0 0 0 0 0 0 0 0 0 0 0 0 0 0 0 0 0 0 0 0 0 0 0 0 0 0 0 0 0 0 0 0 0 0 -0 -0 -0
0 0 0 0 0 0 0 0 0 0 0 0 0 0 0 0 0 0 0 0 0 0 0 0 0 0 0 0 0 0 0 0 0 0 0 0 0 0 0 0 0 0 0 0 0 0 0
0 0 0 0 0 0 0 0 0 0 0 0 0 0 0 0 0 0 0 0 0 0 0 0 0 0 0 0 0 0 0 0 0 0 0 0 0 0 0 0 0 0 0 0 0 0 0
0 0 0 0 0 0 0 0 0 0 0 0 0 0 0 0 0 0 0 0 0 0 0 0 0 0 0 0 0 0 0 0 0 0 0 0 0 0 0 0 0 0 0 0 0 -0 0
0 0 0 0 0 0 0 0 0 0 0 0 0 0 0 0 0 0 0 0 0 0 0 0 0 0 0 0 -0 0 -0 0 0 0 0 0 0 0 0 0 0 0 0 0 0 0 0
0 0 0 0 0 0 0 0 0 0 0 0 0 0 0 0 0 0 0 0 0 0 0 0 0 -0 -0 -0 -0 0 0 0 0 0 0 0 0 0 0 0 0 0 0 0 0 -0 0
0 0 0 0 0 0 0 0 0 0 0 0 0 0 0 0 0 0 0 0 0 0 0 0 0 0 0 0 0 0 0 0 0 0 0 0 0 0 0 0 0 0 0 0 0 -0 0
0 0 0 0 0 0 0 0 0 0 0 0 0 0 0 0 0 0 0 0 0 0 0 0 0 0 0 0 0 -0 0 0 0 0 0 0 0 0 0 0 0 0 0 0 0 0 0
0 0 0 0 0 0 0 0 0 0 0 0 0 0 0 0 0 0 0 0 0 0 0 0 0 0 0 0 0 0 0 -0 0 0 0 0 0 0 0 0 0 0 0 0 0 -0 0
0 0 0 0 0 0 0 0 0 0 0 0 0 0 0 0 0 0 0 0 0 0 0 0 0 0 0 0 0 0 0 0 0 0 0 0 0 0 0 0 0 0 0 0 0 0 -0
0 0 0 0 0 0 0 0 0 0 0 0 0 0 0 0 0 0 0 0 0 0 0 0 0 0 0 0 0 0 0 0 0 0 0 0 0 0 0 0 0 0 0 0 0 0 -0
0 0 0 0 0 0 0 0 0 0 0 0 0 0 0 0 0 0 0 0 0 0 0 0 0 0 0 0 0 0 0 0 0 0 0 0 0 0 0 0 0 0 0 0 0 0 0
0 0 0 0 0 0 0 0 0 0 0 0 0 0 0 0 0 0 0 0 0 0 0 0 0 0 0 0 0 0 0 0 0 0 0 0 0 0 0 0 0 0 0 0 0 0 0
0 0 0 0 0 0 0 0 0 0 0 0 0 0 0 0 0 0 0 0 0 0 0 0 0 0 0 0 0 0 0 0 0 0 0 0 0 0 0 0 0 0 0 0 0 0 0
0 0 0 0 0 0 0 0 0 0 0 0 0 0 0 0 0 0 0 0 0 0 0 0 0 0 0 0 0 0 0 0 0 0 0 0 0 0 0 0 0 0 0 0 0 0 0
0 0 0 0 0 0 0 0 0 0 0 0 0 0 0 0 0 0 0 0 0 0 0 0 0 0 0 0 0 0 0 0 0 0 0 0 0 0 0 -0 0 0 0 0 0 0 0
0 0 0 0 0 0 0 0 0 0 0 0 0 0 0 0 0 0 0 0 0 0 0 0 0 0 0 0 0 0 0 0 -0 0 0 -0 0 0 0 -0 0 0 0 0 0 0 -0
0 0 0 0 0 0 0 0 0 0 0 0 0 0 0 0 0 0 0 0 0 0 0 0 0 0 0 0 0 0 0 0 0 0 0 0 0 0 0 0 0 0 0 0 0 0 0
0 0 0 0 0 0 0 0 0 0 0 0 0 0 0 0 -0 0 0 0 0 0 0 0 0 0 0 0 0 0 0 0 0 0 0 0 -0 0 0 -0 -0 -0 0 0 0 0 0
0 0 0 0 0 0 -0 -0 -0 0 0 0 0 0 0 -0 0 0 0 0 0 0 0 0 0 0 0 0 0 0 0 0 -0 0 0 0 -0 -0 -0 -0 0 -0 0 0 0 0 0
0 0 0 -0 -0 -0 -0 -0 0 0 0 0 0 0 -0 -0 -0 0 0 0 0 0 0 0 0 0 -0 0 0 0 0 0 0 0 0 0 -0 -0 -0 -0 0 -0 0 0 0 0 0
0 0 -0 -0 -0 -0 -0 -0 -0 -0 0 0 0 0 -0 -0 0 0 0 0 0 0 0 0 0 0 0 0 0 0 0 0 0 0 0 0 -0 -0 -0 -0 0 0 0 0 0 0 0
0 -0 -0 -0 -0 0 -0 0 -0 -0 0 0 0 0 0 -0 -0 0 0 0 0 0 0 0 0 0 0 0 0 0 0 0 0 0 0 0 0 0 -0 0 0 0 0 0 0 0 0
-0 -0 -0 0 -0 -0 -0 -0 -0 -0 0 -0 0 0 0 -0 -0 0 0 0 0 0 0 0 0 0 0 0 0 0 0 0 0 0 0 0 0 0 -0 0 0 0 0 0 0 0 0
-0 -0 -0 -0 -0 0 0 -0 -0 -0 -0 -0 0 0 0 -0 -0 0 0 0 0 0 0 0 0 0 0 0 0 0 0 0 -0 0 0 0 0 0 0 -0 0 0 0 0 0 0 0
-0 -0 -0 -0 -0 0 0 -0 -0 -0 -0 0 0 0 0 0 -0 0 0 0 0 0 0 0 0 0 0 0 0 0 -0 0 0 0 -0 -0 0 0 0 -0 0 0 0 0 0 0 0
-0 -0 -0 -0 0 0 0 0 -0 -0 -0 -0 0 0 0 0 0 0 0 0 0 0 0 0 0 0 0 0 0 -0 0 -0 -0 0 0 0 -0 0 0 0 0 0 0 0 0 0 0
Wind_Speed_500mb
22 23 21 20 24 26 26 28 30 31 32 34 37 37 36 40 39 40 41 41 40 40 40 43 45 47 46 17 48 21 22 29 25 21 13 13 25 33 18 19 37 34 37 58 67 68 75
18 24 26 29 28 23 25 32 34 37 38 43 47 45 42 43 46 46 42 42 42 42 40 42 46 45 31 22 11 6 20 16 20 22 24 23 23 40 40 35 33 45 48 53 61 60 57
27 20 25 30 28 35 38 38 38 39 44 47 52 52 49 45 47 50 48 47 43 40 38 40 39 34 33 70 36 35 28 28 23 26 33 27 24 24 31 22 49 53 34 33 37 47 27
23 27 30 31 32 36 33 35 42 44 45 50 56 47 47 48 50 51 48 49 47 39 31 27 31 21 27 28 15 16 14 23 31 34 35 40 31 33 18 29 32 19 27 30 26 22 37
33 33 32 35 38 32 36 38 40 38 46 49 49 48 51 51 49 49 47 49 45 27 26 26 28 16 25 13 20 6 6 15 20 18 29 26 31 29 20 7 11 12 18 23 34 28 33
27 30 32 32 37 31 37 40 33 37 43 51 53 48 52 45 49 43 39 40 22 18 10 12 8 14 27 24 7 14 11 19 12 16 17 12 14 9 4 4 16 9 15 17 27 43 33
29 31 38 36 35 35 34 33 37 43 46 52 48 47 50 46 46 32 31 34 26 7 22 21 23 30 43 30 44 35 20 18 7 13 8 23 11 16 17 21 27 25 31 37 37 34 32
37 40 38 39 37 37 39 40 39 39 44 41 44 52 44 44 38 15 21 22 26 30 30 52 66 81 85 72 42 41 32 17 9 11 13 9 13 15 22 30 28 27 36 46 45 39 31
38 38 35 34 39 39 40 42 44 43 43 42 42 46 42 41 28 5 17 32 30 32 13 50 35 33 37 31 37 37 27 31 12 10 14 19 14 10 24 36 30 27 34 38 38 41 48
28 30 35 36 38 39 41 39 42 43 41 40 38 45 37 42 22 13 10 22 23 30 8 15 13 15 28 14 14 34 28 34 6 1 6 6 8 20 30 34 27 23 22 47 35 25 19
38 38 36 38 39 40 38 36 39 41 46 48 47 40 35 31 34 22 28 30 30 16 9 17 17 26 25 22 9 14 23 40 16 14 10 12 9 10 28 34 32 19 31 44 14 18 26
41 41 45 45 44 42 45 47 49 46 49 49 47 41 36 38 32 19 28 23 13 2 16 16 21 21 20 27 12 21 21 15 6 10 18 23 28 10 4 22 15 16 29 11 14 8 15
41 42 39 34 39 42 42 42 40 40 42 38 37 36 34 31 36 19 16 24 5 12 20 19 15 31 33 13 25 20 20 14 10 7 10 13 27 24 16 15 15 18 18 1 5 8 12
38 36 38 39 39 42 42 42 39 38 42 44 45 37 41 38 30 13 25 6 18 18 26 18 12 10 6 7 21 16 24 12 14 10 5 5 10 11 22 22 11 25 13 7 10 7 6
39 41 38 34 37 41 43 42 38 39 40 43 41 39 47 31 18 19 17 13 11 15 14 25 22 12 3 22 20 10 20 7 9 23 13 5 6 5 10 18 28 10 16 11 17 11 7
35 36 37 38 38 38 37 40 36 36 35 39 42 40 52 26 21 28 12 29 24 23 34 34 15 10 6 13 8 6 8 8 7 15 6 1 9 10 2 23 21 17 7 6 7 5 7
39 37 37 38 39 41 39 38 35 34 33 31 31 18 36 12 33 30 20 21 23 56 54 14 23 19 18 20 18 11 11 3 2 10 13 9 5 2 6 13 12 14 9 11 5 8 5
37 40 43 42 41 41 39 35 32 31 28 29 29 8 13 20 23 11 28 15 25 52 69 35 22 17 16 19 16 14 8 9 13 7 12 3 6 11 22 22 29 25 21 21 8 7 9
41 45 44 42 41 41 40 37 36 33 27 29 11 28 52 32 15 25 17 30 46 40 40 23 19 17 16 14 9 12 14 18 22 7 7 6 5 8 12 10 17 7 24 30 18 8 13
45 45 45 42 43 40 36 36 34 29 27 32 9 7 23 33 36 15 25 31 35 48 45 46 33 31 22 17 12 10 4 9 10 9 11 3 7 12 12 21 6 9 16 33 34 6 9
50 51 50 50 45 42 38 33 35 32 29 29 14 9 16 5 12 24 20 3 19 35 40 43 33 24 24 16 13 9 10 17 9 21 10 5 8 12 22 28 23 24 29 30 44 34 10
49 43 46 49 46 43 40 37 33 29 29 34 15 7 9 10 19 11 18 15 30 29 17 18 22 16 14 15 14 17 1 9 5 5 8 9 7 6 16 19 14 31 34 30 33 40 33
48 49 48 49 48 49 47 41 35 31 30 21 31 39 20 11 10 11 7 8 19 20 22 18 9 18 12 18 22 10 8 13 12 9 10 6 4 6 7 15 24 16 14 23 19 19 28
49 49 49 50 48 48 47 45 39 37 41 42 22 19 9 9 10 14 32 17 20 28 17 19 8 27 7 19 21 20 27 27 16 15 19 10 7 1 8 12 8 9 6 6 15 10 9
49 53 54 53 49 47 49 50 48 43 43 51 48 36 10 8 14 20 28 21 27 27 19 16 21 7 3 12 4 7 8 7 15 25 24 21 9 3 4 9 18 8 13 7 12 16 25
58 56 51 46 42 42 43 43 54 51 49 52 51 46 35 7 9 26 21 23 10 11 10 17 3 5 7 5 5 5 7 9 8 8 35 17 14 7 5 8 5 8 14 10 6 8 16
58 52 48 46 44 40 37 34 40 54 54 55 52 48 32 22 33 36 8 12 20 17 8 17 2 0 4 6 5 7 8 8 10 10 8 20 16 20 7 4 15 7 14 5 7 7 20
56 55 52 51 49 43 40 36 30 51 54 60 60 47 50 21 38 33 26 31 28 22 8 24 6 5 3 3 5 7 6 8 8 12 14 19 15 9 6 7 12 30 17 5 20 31 39
53 53 53 53 53 51 47 42 37 36 55 58 65 56 46 36 18 11 30 46 46 40 28 8 11 8 5 5 3 5 6 6 5 5 2 8 11 10 12 7 24 45 42 46 46 45 43
Wind_Direction_500mb
295 299 300 310 317 318 321 317 319 323 319 319 321 318 314 310 310 309 310 311 313 314 314 313 311 312 320 274 263 259 324 318 296 305 306 245 241 240 248 250 241 245 253 253 256 255 260
302 314 311 302 293 299 309 313 313 314 314 315 319 318 310 311 307 307 308 310 312 313 311 308 306 305 304 263 300 179 279 252 284 282 290 275 247 247 266 260 244 253 254 255 262 263 260
288 290 297 302 310 302 299 295 304 311 314 316 318 311 313 306 308 307 309 311 310 309 307 304 305 302 275 264 284 269 249 263 263 250 289 264 298 320 306 304 270 263 265 273 268 266 269
304 288 286 295 307 309 310 312 295 299 310 318 323 318 314 309 309 310 311 310 309 307 295 305 304 289 261 315 322 287 261 290 277 270 255 264 294 289 284 293 293 289 268 260 268 266 274
305 308 298 292 291 295 305 310 313 299 302 313 320 317 317 318 309 314 317 314 312 293 279 291 292 245 264 303 278 9 341 281 311 262 249 256 276 276 285 298 293 246 251 273 275 256 259
312 311 311 307 311 292 297 308 310 309 311 313 318 314 317 318 317 325 325 330 335 279 309 270 259 252 264 240 92 323 265 273 294 280 261 232 265 232 178 200 230 264 274 269 259 260 262
297 300 306 310 305 301 297 298 303 303 305 306 317 314 314 316 325 335 342 4 2 342 317 254 246 228 279 270 272 295 254 262 218 272 248 224 212 236 223 236 253 278 282 273 270 268 283
287 293 287 303 306 308 306 307 287 294 306 309 312 319 315 316 328 354 0 2 356 319 300 279 265 256 254 259 282 276 247 265 207 230 246 241 243 257 276 239 253 273 265 264 280 286 282
288 293 295 288 297 301 303 308 307 291 294 301 308 316 313 319 326 343 344 336 340 331 287 292 250 237 236 233 233 256 229 226 223 260 249 239 264 261 274 256 250 258 274 261 268 295 301
294 289 286 285 287 292 297 303 308 300 300 296 308 315 309 320 312 306 351 352 359 328 305 267 215 224 181 194 243 230 222 195 128 141 33 307 304 274 266 255 239 259 303 291 278 288 283
286 288 289 290 289 290 295 298 302 297 292 294 299 306 309 307 309 317 329 344 337 323 320 178 159 166 189 189 149 183 186 194 158 157 108 252 235 310 243 249 233 255 292 303 346 337 316
294 293 287 277 284 288 290 292 297 294 293 294 283 289 292 304 281 307 324 323 309 198 245 214 148 180 179 217 229 142 164 175 175 157 203 239 264 166 240 272 234 286 287 294 353 312 259
291 297 293 294 289 291 295 295 295 294 292 291 292 279 274 287 276 268 307 340 220 231 286 179 177 174 196 200 221 154 165 154 150 117 240 270 246 232 183 261 237 242 280 236 229 224 244
290 296 297 294 290 289 291 294 288 293 293 291 290 269 266 273 281 267 306 251 223 227 244 307 133 147 203 300 284 178 152 163 217 178 335 271 322 167 181 202 179 219 196 194 183 233 225
285 287 294 292 293 293 294 292 289 284 291 296 295 271 268 267 257 235 262 230 216 227 304 337 318 231 103 263 232 128 172 152 168 182 182 307 239 57 195 205 201 195 208 273 310 323 270
285 286 289 289 291 294 295 292 293 289 291 290 295 285 268 255 194 233 224 234 241 256 318 339 310 7 334 319 352 241 81 13 82 25 340 57 301 303 140 195 234 258 18 200 211 253 242
288 291 291 292 293 294 296 292 292 290 295 281 272 275 278 250 197 208 223 225 256 270 280 295 333 320 318 334 349 327 94 33 60 86 349 17 209 327 113 191 197 204 211 201 246 261 274
284 287 290 294 292 292 291 288 286 287 287 274 252 242 268 203 192 202 236 235 246 273 293 302 299 288 305 329 317 320 56 96 169 143 137 100 275 252 246 203 217 198 233 211 196 192 251
287 291 292 290 291 287 286 281 281 279 267 265 249 268 261 259 211 219 243 233 246 269 276 286 282 305 297 278 292 315 42 124 152 105 138 187 245 289 302 220 200 219 235 228 228 277 234
289 291 292 289 289 286 287 279 274 277 256 243 247 276 237 220 243 239 221 239 240 238 254 264 280 299 286 283 247 269 313 105 122 100 125 308 236 236 273 310 237 230 288 215 210 221 256
287 285 286 286 284 284 282 282 275 271 245 240 221 252 269 254 211 235 244 260 268 254 246 240 255 253 270 284 286 291 296 146 170 144 172 208 262 268 283 294 296 306 282 282 216 214 244
283 286 279 278 279 279 280 279 271 261 262 222 205 207 306 294 300 310 246 243 245 250 276 289 280 284 316 269 269 300 353 45 108 202 213 202 269 306 292 263 354 312 283 258 235 215 234
284 282 279 278 276 275 274 271 264 253 247 237 220 242 298 297 326 322 302 298 288 272 255 216 308 322 313 324 352 329 299 234 190 176 193 243 254 356 274 347 330 270 258 246 184 185 220
283 281 279 278 277 274 270 268 254 244 232 234 233 243 262 263 261 282 296 315 323 312 301 324 258 209 28 338 296 300 267 269 205 217 214 209 140 260 279 307 233 334 108 160 164 95 107
282 282 280 277 274 269 267 257 251 239 229 232 232 231 253 288 294 296 300 312 297 315 312 302 292 73 13 29 40 309 268 260 238 229 215 215 147 243 282 312 279 292 30 12 194 50 33
285 285 280 277 272 272 273 277 233 232 224 228 233 230 237 284 244 278 346 322 296 294 307 284 334 69 186 85 348 238 254 222 217 240 209 198 164 182 181 270 291 218 159 202 205 78 65
285 281 276 273 272 269 263 274 224 224 221 221 230 224 229 254 268 279 290 324 306 345 287 296 123 112 222 130 182 213 245 250 245 238 162 189 188 206 229 203 269 24 141 124 68 122 93
281 278 273 271 268 262 252 252 250 223 220 217 227 224 216 245 261 255 264 284 290 307 333 347 2 190 182 168 199 244 246 250 187 268 180 172 175 183 218 222 258 124 87 317 115 95 92
279 275 273 268 262 254 245 237 237 234 217 214 224 222 219 232 254 278 260 255 255 271 289 277 286 285 84 239 319 340 316 316 270 273 303 177 186 165 168 207 72 84 107 93 89 87 78
Wind_Speed_850mb
22 23 21 20 24 26 26 28 30 31 32 34 37 37 36 40 39 40 41 41 40 40 40 43 45 47 46 17 48 21 22 29 25 21 13 13 25 33 18 19 37 34 37 58 67 68 75
18 24 26 29 28 23 25 32 34 37 38 43 47 45 42 43 46 46 42 42 42 42 40 42 46 45 31 22 11 6 20 16 20 22 24 23 23 40 40 35 33 45 48 53 61 60 57
27 20 25 30 28 35 38 38 38 39 44 47 52 52 49 45 47 50 48 47 43 40 38 40 39 34 33 70 36 35 28 28 23 26 33 27 24 24 31 22 49 53 34 33 37 47 27
23 27 30 31 32 36 33 35 42 44 45 50 56 47 47 48 50 51 48 49 47 39 31 27 31 21 27 28 15 16 14 23 31 34 35 40 31 33 18 29 32 19 27 30 26 22 37
33 33 32 35 38 32 36 38 40 38 46 49 49 48 51 51 49 49 47 49 45 27 26 26 28 16 25 13 20 6 6 15 20 18 29 26 31 29 20 7 11 12 18 23 34 28 33
27 30 32 32 37 31 37 40 33 37 43 51 53 48 52 45 49 43 39 40 22 18 10 12 8 14 27 24 7 14 11 19 12 16 17 12 14 9 4 4 16 9 15 17 27 43 33
29 31 38 36 35 35 34 33 37 43 46 52 48 47 50 46 46 32 31 34 26 7 22 21 23 30 43 30 44 35 20 18 7 13 8 23 11 16 17 21 27 25 31 37 37 34 32
37 40 38 39 37 37 39 40 39 39 44 41 44 52 44 44 38 15 21 22 26 30 30 52 66 81 85 72 42 41 32 17 9 11 13 9 13 15 22 30 28 27 36 46 45 39 31
38 38 35 34 39 39 40 42 44 43 43 42 42 46 42 41 28 5 17 32 30 32 13 50 35 33 37 31 37 37 27 31 12 10 14 19 14 10 24 36 30 27 34 38 38 41 48
28 30 35 36 38 39 41 39 42 43 41 40 38 45 37 42 22 13 10 22 23 30 8 15 13 15 28 14 14 34 28 34 6 1 6 6 8 20 30 34 27 23 22 47 35 25 19
38 38 36 38 39 40 38 36 39 41 46 48 47 40 35 31 34 22 28 30 30 16 9 17 17 26 25 22 9 14 23 40 16 14 10 12 9 10 28 34 32 19 31 44 14 18 26
41 41 45 45 44 42 45 47 49 46 49 49 47 41 36 38 32 19 28 23 13 2 16 16 21 21 20 27 12 21 21 15 6 10 18 23 28 10 4 22 15 16 29 11 14 8 15
41 42 39 34 39 42 42 42 40 40 42 38 37 36 34 31 36 19 16 24 5 12 20 19 15 31 33 13 25 20 20 14 10 7 10 13 27 24 16 15 15 18 18 1 5 8 12
38 36 38 39 39 42 42 42 39 38 42 44 45 37 41 38 30 13 25 6 18 18 26 18 12 10 6 7 21 16 24 12 14 10 5 5 10 11 22 22 11 25 13 7 10 7 6
39 41 38 34 37 41 43 42 38 39 40 43 41 39 47 31 18 19 17 13 11 15 14 25 22 12 3 22 20 10 20 7 9 23 13 5 6 5 10 18 28 10 16 11 17 11 7
35 36 37 38 38 38 37 40 36 36 35 39 42 40 52 26 21 28 12 29 24 23 34 34 15 10 6 13 8 6 8 8 7 15 6 1 9 10 2 23 21 17 7 6 7 5 7
39 37 37 38 39 41 39 38 35 34 33 31 31 18 36 12 33 30 20 21 23 56 54 14 23 19 18 20 18 11 11 3 2 10 13 9 5 2 6 13 12 14 9 11 5 8 5
37 40 43 42 41 41 39 35 32 31 28 29 29 8 13 20 23 11 28 15 25 52 69 35 22 17 16 19 16 14 8 9 13 7 12 3 6 11 22 22 29 25 21 21 8 7 9
41 45 44 42 41 41 40 37 36 33 27 29 11 28 52 32 15 25 17 30 46 40 40 23 19 17 16 14 9 12 14 18 22 7 7 6 5 8 12 10 17 7 24 30 18 8 13
45 45 45 42 43 40 36 36 34 29 27 32 9 7 23 33 36 15 25 31 35 48 45 46 33 31 22 17 12 10 4 9 10 9 11 3 7 12 12 21 6 9 16 33 34 6 9
50 51 50 50 45 42 38 33 35 32 29 29 14 9 16 5 12 24 20 3 19 35 40 43 33 24 24 16 13 9 10 17 9 21 10 5 8 12 22 28 23 24 29 30 44 34 10
49 43 46 49 46 43 40 37 33 29 29 34 15 7 9 10 19 11 18 15 30 29 17 18 22 16 14 15 14 17 1 9 5 5 8 9 7 6 16 19 14 31 34 30 33 40 33
48 49 48 49 48 49 47 41 35 31 30 21 31 39 20 11 10 11 7 8 19 20 22 18 9 18 12 18 22 10 8 13 12 9 10 6 4 6 7 15 24 16 14 23 19 19 28
49 49 49 50 48 48 47 45 39 37 41 42 22 19 9 9 10 14 32 17 20 28 17 19 8 27 7 19 21 20 27 27 16 15 19 10 7 1 8 12 8 9 6 6 15 10 9
49 53 54 53 49 47 49 50 48 43 43 51 48 36 10 8 14 20 28 21 27 27 19 16 21 7 3 12 4 7 8 7 15 25 24 21 9 3 4 9 18 8 13 7 12 16 25
58 56 51 46 42 42 43 43 54 51 49 52 51 46 35 7 9 26 21 23 10 11 10 17 3 5 7 5 5 5 7 9 8 8 35 17 14 7 5 8 5 8 14 10 6 8 16
58 52 48 46 44 40 37 34 40 54 54 55 52 48 32 22 33 36 8 12 20 17 8 17 2 0 4 6 5 7 8 8 10 10 8 20 16 20 7 4 15 7 14 5 7 7 20
56 55 52 51 49 43 40 36 30 51 54 60 60 47 50 21 38 33 26 31 28 22 8 24 6 5 3 3 5 7 6 8 8 12 14 19 15 9 6 7 12 30 17 5 20 31 39
53 53 53 53 53 51 47 42 37 36 55 58 65 56 46 36 18 11 30 46 46 40 28 8 11 8 5 5 3 5 6 6 5 5 2 8 11 10 12 7 24 45 42 46 46 45 43
Wind_Direction_850mb
295 299 300 310 317 318 321 317 319 323 319 319 321 318 314 310 310 309 310 311 313 314 314 313 311 312 320 274 263 259 324 318 296 305 306 245 241 240 248 250 241 245 253 253 256 255 260
302 314 311 302 293 299 309 313 313 314 314 315 319 318 310 311 307 307 308 310 312 313 311 308 306 305 304 263 300 179 279 252 284 282 290 275 247 247 266 260 244 253 254 255 262 263 260
288 290 297 302 310 302 299 295 304 311 314 316 318 311 313 306 308 307 309 311 310 309 307 304 305 302 275 264 284 269 249 263 263 250 289 264 298 320 306 304 270 263 265 273 268 266 269
304 288 286 295 307 309 310 312 295 299 310 318 323 318 314 309 309 310 311 310 309 307 295 305 304 289 261 315 322 287 261 290 277 270 255 264 294 289 284 293 293 289 268 260 268 266 274
305 308 298 292 291 295 305 310 313 299 302 313 320 317 317 318 309 314 317 314 312 293 279 291 292 245 264 303 278 9 341 281 311 262 249 256 276 276 285 298 293 246 251 273 275 256 259
312 311 311 307 311 292 297 308 310 309 311 313 318 314 317 318 317 325 325 330 335 279 309 270 259 252 264 240 92 323 265 273 294 280 261 232 265 232 178 200 230 264 274 269 259 260 262
297 300 306 310 305 301 297 298 303 303 305 306 317 314 314 316 325 335 342 4 2 342 317 254 246 228 279 270 272 295 254 262 218 272 248 224 212 236 223 236 253 278 282 273 270 268 283
287 293 287 303 306 308 306 307 287 294 306 309 312 319 315 316 328 354 0 2 356 319 300 279 265 256 254 259 282 276 247 265 207 230 246 241 243 257 276 239 253 273 265 264 280 286 282
288 293 295 288 297 301 303 308 307 291 294 301 308 316 313 319 326 343 344 336 340 331 287 292 250 237 236 233 233 256 229 226 223 260 249 239 264 261 274 256 250 258 274 261 268 295 301
294 289 286 285 287 292 297 303 308 300 300 296 308 315 309 320 312 306 351 352 359 328 305 267 215 224 181 194 243 230 222 195 128 141 33 307 304 274 266 255 239 259 303 291 278 288 283
286 288 289 290 289 290 295 298 302 297 292 294 299 306 309 307 309 317 329 344 337 323 320 178 159 166 189 189 149 183 186 194 158 157 108 252 235 310 243 249 233 255 292 303 346 337 316
294 293 287 277 284 288 290 292 297 294 293 294 283 289 292 304 281 307 324 323 309 198 245 214 148 180 179 217 229 142 164 175 175 157 203 239 264 166 240 272 234 286 287 294 353 312 259
291 297 293 294 289 291 295 295 295 294 292 291 292 279 274 287 276 268 307 340 220 231 286 179 177 174 196 200 221 154 165 154 150 117 240 270 246 232 183 261 237 242 280 236 229 224 244
290 296 297 294 290 289 291 294 288 293 293 291 290 269 266 273 281 267 306 251 223 227 244 307 133 147 203 300 284 178 152 163 217 178 335 271 322 167 181 202 179 219 196 194 183 233 225
285 287 294 292 293 293 294 292 289 284 291 296 295 271 268 267 257 235 262 230 216 227 304 337 318 231 103 263 232 128 172 152 168 182 182 307 239 57 195 205 201 195 208 273 310 323 270
285 286 289 289 291 294 295 292 293 289 291 290 295 285 268 255 194 233 224 234 241 256 318 339 310 7 334 319 352 241 81 13 82 25 340 57 301 303 140 195 234 258 18 200 211 253 242
288 291 291 292 293 294 296 292 292 290 295 281 272 275 278 250 197 208 223 225 256 270 280 295 333 320 318 334 349 327 94 33 60 86 349 17 209 327 113 191 197 204 211 201 246 261 274
284 287 290 294 292 292 291 288 286 287 287 274 252 242 268 203 192 202 236 235 246 273 293 302 299 288 305 329 317 320 56 96 169 143 137 100 275 252 246 203 217 198 233 211 196 192 251
287 291 292 290 291 287 286 281 281 279 267 265 249 268 261 259 211 219 243 233 246 269 276 286 282 305 297 278 292 315 42 124 152 105 138 187 245 289 302 220 200 219 235 228 228 277 234
289 291 292 289 289 286 287 279 274 277 256 243 247 276 237 220 243 239 221 239 240 238 254 264 280 299 286 283 247 269 313 105 122 100 125 308 236 236 273 310 237 230 288 215 210 221 256
287 285 286 286 284 284 282 282 275 271 245 240 221 252 269 254 211 235 244 260 268 254 246 240 255 253 270 284 286 291 296 146 170 144 172 208 262 268 283 294 296 306 282 282 216 214 244
283 286 279 278 279 279 280 279 271 261 262 222 205 207 306 294 300 310 246 243 245 250 276 289 280 284 316 269 269 300 353 45 108 202 213 202 269 306 292 263 354 312 283 258 235 215 234
284 282 279 278 276 275 274 271 264 253 247 237 220 242 298 297 326 322 302 298 288 272 255 216 308 322 313 324 352 329 299 234 190 176 193 243 254 356 274 347 330 270 258 246 184 185 220
283 281 279 278 277 274 270 268 254 244 232 234 233 243 262 263 261 282 296 315 323 312 301 324 258 209 28 338 296 300 267 269 205 217 214 209 140 260 279 307 233 334 108 160 164 95 107
282 282 280 277 274 269 267 257 251 239 229 232 232 231 253 288 294 296 300 312 297 315 312 302 292 73 13 29 40 309 268 260 238 229 215 215 147 243 282 312 279 292 30 12 194 50 33
285 285 280 277 272 272 273 277 233 232 224 228 233 230 237 284 244 278 346 322 296 294 307 284 334 69 186 85 348 238 254 222 217 240 209 198 164 182 181 270 291 218 159 202 205 78 65
285 281 276 273 272 269 263 274 224 224 221 221 230 224 229 254 268 279 290 324 306 345 287 296 123 112 222 130 182 213 245 250 245 238 162 189 188 206 229 203 269 24 141 124 68 122 93
281 278 273 271 268 262 252 252 250 223 220 217 227 224 216 245 261 255 264 284 290 307 333 347 2 190 182 168 199 244 246 250 187 268 180 172 175 183 218 222 258 124 87 317 115 95 92
279 275 273 268 262 254 245 237 237 234 217 214 224 222 219 232 254 278 260 255 255 271 289 277 286 285 84 239 319 340 316 316 270 273 303 177 186 165 168 207 72 84 107 93 89 87 78